Location: *
(51.8167°N, 12.5000°E)
Time: 20:55:22
(UTC+00:00)

Cosmos 2056 Rocket - Pass Details

Date: 16 September 2019
Orbit: 742 x 800 km, 74.0° (Epoch: 17 October)

Event Time Altitude Azimuth Distance (km) Brightness Sun altitude
Rises 19:19:45 0° 185° (S) 3,295 6.5 -18.0°
Reaches altitude 10° 19:22:12 10° 181° (S) 2,371 5.8 -18.3°
Maximum altitude 19:27:24 50° 107° (ESE) 1,014 3.7 -19.0°
Drops below altitude 10° 19:32:37 10° 33° (NNE) 2,378 6.0 -19.7°
Sets 19:35:04 0° 29° (NNE) 3,306 6.8 -20.0°
